Change the Weather History Date:

Thursday, July 18, 2013

  Actual Average Record
Temperature  
Mean Temperature 86 °F 76 °F  
Max Temperature 96 °F 86 °F 101 °F (1930)
Min Temperature 75 °F 66 °F 51 °F (1979)
Degree Days  
Heating Degree Days 0 0  
Month to date heating degree days 0 0  
Since 1 June heating degree days 18 18  
Since 1 July heating degree days 0 0  
Cooling Degree Days 21 11  
Month to date cooling degree days 214 196  
Year to date cooling degree days 544 499  
Since 1 June cooling degree days 437 418  
Growing Degree Days 36 (Base 50)    
Moisture  
Dew Point 72 °F    
Average Humidity 65    
Maximum Humidity 87    
Minimum Humidity 43    
Precipitation  
Precipitation 0.00 in 0.13 in 2.96 in (1982)
Month to date precipitation 0.39 2.29  
Year to date precipitation 30.10 20.15  
Snow  
Snow 0.00 in 0.00 in 0.00 in ()
Month to date snowfall 0.0 0.0  
Since 1 June snowfall 0.0 0.0  
Since 1 July snowfall 0.0 0.0  
Snow Depth 0.00 in    
Sea Level Pressure  
Sea Level Pressure 30.10 in    
Wind  
Wind Speed 6 mph (SW)    
Max Wind Speed 14 mph    
Max Gust Speed 18 mph    
Visibility 10 miles    
Events      
T = Trace of Precipitation, MM = Missing Value Source: NWS Daily Summary

Daily Weather History Graph

Daily Weather History Graph

Search for Another Location

Airport or City:

Trip Planner

Search our weather history database for the weather conditions in past years. The results will help you decide how hot, cold, wet, or windy it might be!

Date:

Astronomy

Jul. 18, 2013 Rise Set
Actual Time 5:43 AM CDT 8:26 PM CDT
Civil Twilight 5:11 AM CDT 8:58 PM CDT
Nautical Twilight 4:30 AM CDT 9:38 PM CDT
Astronomical Twilight 3:45 AM CDT 10:23 PM CDT
Moon 4:23 PM CDT (7/18) 1:33 AM CDT (7/18)
Length of Visible Light 15h 47m
Length of Day
14h 43m
Waxing Gibbous, 77% of the Moon is Illuminated
Jul 18
Waxing Gibbous
Jul 22
Full
Jul 29
Last Quarter
Aug 6
New
Aug 14
First Quarter

Hourly Weather History & Observations

Time (CDT) Temp. Heat Index Dew Point Humidity Pressure Visibility Wind Dir Wind Speed Gust Speed Precip Events Conditions
12:54 AM 79.0 °F - 73.0 °F 82% 30.20 in 10.0 mi Calm Calm - N/A   Clear
1:54 AM 78.1 °F - 72.0 °F 81% 30.19 in 10.0 mi South 4.6 mph - N/A   Clear
2:54 AM 78.1 °F - 73.0 °F 84% 30.18 in 10.0 mi Calm Calm - N/A   Clear
3:54 AM 77.0 °F - 72.0 °F 84% 30.17 in 10.0 mi Calm Calm - N/A   Clear
4:54 AM 75.0 °F - 72.0 °F 90% 30.16 in 9.0 mi Calm Calm - N/A   Clear
5:54 AM 75.9 °F - 72.0 °F 87% 30.17 in 10.0 mi Calm Calm - N/A   Clear
6:54 AM 78.1 °F - 73.9 °F 87% 30.17 in 9.0 mi SSW 4.6 mph - N/A   Clear
7:54 AM 81.0 °F 86.2 °F 73.9 °F 79% 30.16 in 10.0 mi SW 3.5 mph - N/A   Clear
8:54 AM 84.0 °F 90.2 °F 73.0 °F 69% 30.16 in 10.0 mi South 3.5 mph - N/A   Partly Cloudy
9:54 AM 88.0 °F 95.6 °F 73.0 °F 61% 30.15 in 10.0 mi Variable 4.6 mph - N/A   Clear
10:54 AM 91.0 °F 98.2 °F 72.0 °F 53% 30.14 in 10.0 mi Variable 5.8 mph - N/A   Clear
11:54 AM 89.1 °F 95.0 °F 71.1 °F 55% 30.13 in 10.0 mi SW 8.1 mph - N/A   Partly Cloudy
12:54 PM 93.9 °F 100.8 °F 71.1 °F 47% 30.12 in 10.0 mi SSW 10.4 mph - N/A   Clear
1:54 PM 93.9 °F 100.8 °F 71.1 °F 47% 30.09 in 10.0 mi SSW 11.5 mph - N/A   Clear
2:54 PM 93.9 °F 100.3 °F 70.0 °F 46% 30.06 in 10.0 mi SW 12.7 mph 18.4 mph N/A   Clear
3:54 PM 95.0 °F 100.7 °F 69.1 °F 43% 30.04 in 10.0 mi WSW 8.1 mph - N/A   Clear
4:54 PM 93.9 °F 100.3 °F 70.0 °F 46% 30.02 in 10.0 mi WSW 10.4 mph - N/A   Clear
5:54 PM 93.0 °F 99.0 °F 70.0 °F 47% 30.01 in 10.0 mi WSW 11.5 mph - N/A   Clear
6:54 PM 91.0 °F 97.6 °F 71.1 °F 52% 30.00 in 10.0 mi SW 10.4 mph - N/A   Clear
7:54 PM 88.0 °F 94.7 °F 72.0 °F 59% 30.00 in 10.0 mi SSW 6.9 mph - N/A   Clear
8:54 PM 84.9 °F 90.7 °F 72.0 °F 65% 30.00 in 10.0 mi SSW 5.8 mph - N/A   Clear
9:54 PM 82.9 °F 88.0 °F 72.0 °F 69% 30.00 in 10.0 mi SW 5.8 mph - N/A   Clear
10:54 PM 82.0 °F 86.7 °F 72.0 °F 71% 29.99 in 10.0 mi SW 5.8 mph - N/A   Clear
11:54 PM 81.0 °F 85.2 °F 72.0 °F 74% 29.99 in 10.0 mi SSW 6.9 mph - N/A   Clear